Wind_Speed
28 27 22 22 18 15 15 14 11 12 14 15 18 20 27 19 17 22 22 22 17 16 15 13 11 10 9 9 14 16 17 19 19
26 25 22 22 21 19 17 12 12 10 8 13 17 17 23 21 16 13 8 10 13 15 15 11 10 11 10 11 9 9 10 11 12
26 24 20 22 21 22 19 14 15 12 12 7 10 22 22 21 17 15 13 8 8 14 16 16 15 18 18 17 14 14 14 16 18
26 22 21 21 21 24 23 18 20 12 12 10 10 14 22 22 15 12 13 10 10 12 12 15 15 15 13 14 14 15 18 23 24
27 24 24 20 19 22 23 20 18 19 19 23 20 16 19 21 20 18 16 18 16 17 19 24 22 22 22 22 20 20 21 20 22
29 28 25 22 19 17 17 17 14 14 15 18 21 23 23 25 29 25 24 22 18 19 22 26 25 22 23 24 25 26 26 27 28
35 34 28 26 24 20 20 19 17 14 13 14 15 18 22 26 25 24 29 32 30 20 15 13 15 18 19 21 23 25 25 26 28
38 40 34 34 28 27 23 17 19 19 19 16 14 16 19 20 21 24 25 28 27 25 22 21 21 24 26 26 27 29 30 30 30
47 42 39 39 37 33 31 29 26 25 23 25 24 23 24 24 23 22 27 30 32 32 32 33 34 35 35 35 36 35 34 35 36
49 47 44 44 45 39 38 35 28 28 30 29 28 28 28 28 30 34 37 39 40 39 41 41 41 40 40 40 41 39 41 41 43
50 45 41 47 47 51 47 43 40 40 40 38 37 37 36 36 38 41 42 40 42 46 44 45 45 46 50 48 49 50 50 48 50
46 49 45 39 46 53 55 53 50 49 46 45 44 43 44 44 45 46 48 49 48 47 49 49 52 55 57 58 60 59 60 57 57
41 42 48 42 40 50 53 57 58 56 54 53 52 51 50 51 53 52 53 55 55 57 57 59 62 64 66 66 67 68 69 67 65
40 41 40 39 41 42 50 62 61 58 57 58 59 58 57 59 60 59 59 62 61 63 66 68 69 70 70 70 72 74 75 75 73
39 38 35 37 39 42 45 51 57 62 65 63 60 65 63 64 65 67 69 72 73 74 74 73 76 76 76 78 80 80 79 79 79
48 42 38 41 45 47 49 51 54 56 59 63 65 72 72 71 73 75 77 78 79 78 77 77 79 81 81 82 82 83 83 83 82
53 53 53 51 52 53 57 57 56 57 59 62 64 66 68 69 70 70 71 73 75 77 79 80 81 80 80 82 86 87 86 84 86
55 55 53 52 53 54 56 57 58 62 64 68 68 67 68 69 71 73 74 75 76 77 78 79 79 80 81 84 88 88 86 85 84
66 65 60 60 61 62 62 63 63 64 65 68 72 73 74 75 74 75 77 78 78 79 80 81 82 84 86 87 83 83 80 78 75
64 63 66 67 68 70 72 72 73 73 74 75 77 79 81 81 81 82 81 81 82 85 83 81 81 80 78 76 76 74 72 72 73
Wind_Direction
263 264 246 232 238 245 238 205 212 210 211 202 204 196 192 189 183 198 207 207 201 199 214 221 235 229 231 235 243 248 258 263 267
260 261 247 234 232 232 201 202 208 190 211 207 196 194 192 194 192 188 180 216 218 215 221 230 237 251 256 253 245 238 245 256 265
252 249 242 235 229 224 215 216 203 200 215 178 202 198 187 195 204 202 203 206 265 234 227 234 248 256 263 267 264 261 261 266 272
246 240 232 240 221 228 237 230 213 215 201 235 233 207 203 205 229 223 225 233 229 245 243 247 258 274 262 266 269 268 272 276 273
243 234 229 236 224 223 235 224 217 217 212 217 243 232 220 215 204 232 221 231 244 252 259 260 259 271 266 269 269 276 291 290 281
236 231 219 227 215 216 221 213 207 213 219 224 232 226 222 221 215 213 224 227 228 230 243 247 254 254 258 264 273 278 287 286 283
231 222 213 206 196 195 204 211 218 218 216 219 223 224 223 228 233 239 224 225 239 254 266 266 261 264 271 277 284 288 291 292 286
239 226 213 215 204 205 206 224 224 215 220 218 220 232 234 236 245 254 257 254 262 267 268 269 272 281 279 280 286 291 291 293 294
231 234 227 220 219 215 215 216 224 235 231 228 235 238 237 244 252 259 261 261 258 259 268 275 281 283 284 281 283 287 291 294 291
239 236 235 234 231 226 221 222 224 234 242 242 248 254 258 260 265 268 269 265 266 266 274 277 278 281 284 286 286 289 290 291 293
236 239 243 240 238 237 238 232 229 234 240 246 252 259 262 268 271 270 273 272 269 266 273 279 279 280 287 288 290 290 289 289 291
237 236 235 241 241 239 240 243 242 244 247 249 252 260 266 269 273 275 278 281 282 282 280 280 278 282 287 288 290 292 292 292 292
245 242 239 241 250 244 246 248 251 252 253 253 256 259 261 262 267 273 275 275 279 279 282 282 284 287 289 289 290 290 289 290 290
251 252 250 247 253 252 243 244 249 254 257 257 258 257 260 262 264 265 268 268 271 273 276 278 283 286 285 285 286 286 287 288 289
256 261 259 253 253 253 252 248 245 245 246 247 249 251 253 256 259 262 264 266 268 272 274 277 279 281 281 283 284 285 286 287 287
250 251 251 253 255 256 255 258 255 256 257 257 259 257 262 263 264 266 267 269 271 274 275 276 278 280 281 283 285 284 286 288 289
255 251 250 255 256 261 261 261 260 261 262 265 267 267 266 267 269 271 273 274 275 275 277 278 279 280 282 283 284 286 287 287 287
259 255 258 254 256 260 259 262 263 263 264 263 262 264 267 270 273 274 275 275 275 277 277 278 278 280 280 282 286 286 286 287 289
260 265 262 263 262 264 264 266 266 267 268 266 265 265 267 269 272 273 272 274 275 275 277 278 280 281 282 286 286 288 289 288 288
264 263 264 266 267 268 268 269 270 270 270 271 272 272 271 271 272 274 274 275 276 277 278 278 281 283 283 284 286 286 288 289 289
Height
10938 10938 10938 10938 10938 10938 10938 10939 10938 10938 10939 10941 10943 10946 10951 10954 10956 10956 10957 10959 10960 10962 10962 10962 10963 10963 10962 10963 10963 10964 10965 10965 10966
10932 10932 10933 10934 10934 10935 10935 10936 10935 10935 10935 10937 10940 10943 10947 10950 10953 10955 10956 10959 10959 10959 10960 10961 10962 10963 10962 10962 10961 10961 10962 10962 10962
10926 10928 10928 10929 10931 10933 10933 10933 10934 10934 10935 10936 10939 10941 10944 10948 10949 10951 10953 10954 10955 10957 10958 10958 10959 10960 10959 10960 10959 10959 10959 10958 10958
10922 10923 10924 10925 10926 10929 10930 10929 10930 10931 10933 10935 10937 10940 10941 10944 10946 10947 10949 10950 10952 10954 10954 10955 10956 10956 10957 10957 10957 10957 10956 10955 10954
10918 10919 10920 10921 10921 10924 10926 10927 10927 10929 10931 10934 10935 10937 10938 10941 10944 10945 10947 10948 10949 10951 10951 10950 10951 10952 10952 10953 10953 10953 10952 10951 10950
10914 10914 10916 10917 10917 10920 10922 10924 10924 10926 10927 10929 10931 10934 10936 10938 10939 10942 10944 10946 10946 10946 10946 10945 10945 10946 10948 10947 10947 10946 10945 10944 10944
10908 10909 10910 10912 10913 10915 10917 10920 10921 10922 10922 10924 10926 10928 10931 10933 10935 10936 10938 10939 10938 10939 10938 10939 10940 10941 10941 10940 10940 10939 10939 10937 10937
10903 10904 10905 10906 10908 10910 10912 10914 10917 10917 10918 10919 10921 10924 10926 10928 10930 10931 10932 10932 10932 10932 10931 10932 10933 10934 10934 10933 10933 10931 10930 10929 10928
10894 10896 10899 10900 10901 10903 10904 10906 10909 10911 10912 10913 10915 10917 10919 10921 10922 10923 10924 10925 10925 10925 10924 10924 10924 10924 10924 10923 10923 10922 10921 10920 10919
10884 10888 10889 10892 10895 10896 10896 10898 10901 10904 10906 10906 10907 10908 10909 10911 10913 10914 10916 10916 10916 10915 10914 10913 10913 10913 10913 10912 10910 10910 10909 10909 10907
10873 10878 10880 10884 10886 10887 10889 10889 10890 10892 10894 10896 10897 10898 10898 10899 10900 10901 10903 10904 10905 10905 10903 10902 10901 10901 10900 10897 10895 10895 10895 10895 10893
10862 10866 10871 10870 10872 10874 10876 10878 10880 10882 10884 10885 10887 10888 10888 10888 10889 10889 10888 10888 10888 10888 10887 10887 10888 10887 10885 10882 10879 10878 10877 10877 10877
10851 10854 10856 10861 10860 10861 10862 10866 10867 10869 10870 10872 10874 10875 10876 10876 10877 10876 10875 10874 10872 10871 10870 10869 10868 10866 10865 10862 10860 10859 10857 10857 10858
10840 10843 10846 10849 10847 10847 10849 10851 10852 10854 10856 10858 10859 10860 10861 10862 10862 10862 10861 10859 10858 10857 10855 10853 10851 10849 10847 10847 10843 10839 10837 10834 10836
10829 10831 10834 10835 10834 10834 10835 10836 10837 10839 10840 10841 10842 10843 10844 10844 10845 10845 10845 10843 10842 10841 10840 10837 10835 10833 10828 10825 10822 10819 10815 10813 10811
10816 10818 10819 10820 10820 10821 10822 10822 10823 10824 10824 10825 10826 10828 10828 10827 10827 10826 10826 10824 10822 10821 10819 10818 10814 10811 10808 10803 10799 10794 10793 10790 10783
10802 10803 10804 10805 10806 10807 10808 10808 10809 10810 10810 10810 10810 10810 10809 10808 10807 10806 10806 10805 10803 10801 10799 10798 10795 10791 10787 10782 10775 10771 10769 10765 10760
10786 10788 10789 10790 10791 10792 10792 10792 10792 10793 10792 10791 10791 10790 10789 10788 10787 10787 10785 10784 10782 10781 10779 10777 10772 10768 10765 10759 10752 10747 10743 10738 10732
10771 10772 10773 10773 10774 10774 10774 10774 10774 10774 10773 10771 10771 10770 10769 10768 10766 10765 10763 10760 10758 10758 10755 10752 10749 10745 10739 10732 10726 10721 10716 10711 10707
10753 10754 10755 10754 10755 10756 10755 10755 10753 10753 10752 10750 10749 10747 10747 10746 10744 10742 10740 10737 10734 10731 10730 10728 10724 10719 10714 10709 10704 10700 10695 10687 10681